Time,TemperatureF,DewpointF,PressureIn,WindDirection,WindDirectionDegrees,WindSpeedMPH,WindSpeedGustMPH,Humidity,HourlyPrecipIn,Conditions,Clouds,dailyrainin,SoftwareType,DateUTC
2013-04-18 00:01:00,64.1,61.4,30.02,NNE,23,1.0,-999.0,91,0.00,,,0.00,Wunderground v.1.15,2013-04-18 04:01:00,
2013-04-18 00:06:00,64.1,61.4,30.02,NNE,23,1.0,-999.0,91,0.00,,,0.00,Wunderground v.1.15,2013-04-18 04:06:00,
2013-04-18 00:11:00,64.1,61.4,30.02,NNE,23,1.0,-999.0,91,0.00,,,0.00,Wunderground v.1.15,2013-04-18 04:11:00,
2013-04-18 00:16:00,64.1,61.4,30.02,NNE,23,1.0,-999.0,91,0.00,,,0.00,Wunderground v.1.15,2013-04-18 04:16:00,
2013-04-18 00:21:00,64.1,61.4,30.02,NNE,23,1.0,-999.0,91,0.00,,,0.00,Wunderground v.1.15,2013-04-18 04:21:00,
2013-04-18 00:26:00,63.3,61.2,30.02,NE,45,2.0,-999.0,93,0.00,,,0.00,Wunderground v.1.15,2013-04-18 04:26:00,
2013-04-18 00:31:00,63.3,61.2,30.02,NE,45,2.0,-999.0,93,0.00,,,0.00,Wunderground v.1.15,2013-04-18 04:31:00,
2013-04-18 00:36:00,63.3,61.2,30.02,NE,45,2.0,-999.0,93,0.00,,,0.00,Wunderground v.1.15,2013-04-18 04:36:00,
2013-04-18 00:41:00,63.2,61.4,30.02,ENE,68,1.0,-999.0,94,0.00,,,0.00,Wunderground v.1.15,2013-04-18 04:41:00,
2013-04-18 00:46:00,63.2,61.4,30.02,ENE,68,1.0,-999.0,94,0.00,,,0.00,Wunderground v.1.15,2013-04-18 04:46:00,
2013-04-18 00:51:00,63.2,61.4,30.02,ENE,68,1.0,-999.0,94,0.00,,,0.00,Wunderground v.1.15,2013-04-18 04:51:00,
2013-04-18 00:56:00,62.6,61.1,30.02,NE,45,1.0,-999.0,95,0.00,,,0.00,Wunderground v.1.15,2013-04-18 04:56:00,
2013-04-18 01:01:00,62.6,61.1,30.02,NE,45,1.0,-999.0,95,0.00,,,0.00,Wunderground v.1.15,2013-04-18 05:01:00,
2013-04-18 01:06:00,62.6,61.1,30.02,NE,45,1.0,-999.0,95,0.00,,,0.00,Wunderground v.1.15,2013-04-18 05:06:00,
2013-04-18 01:11:00,62.1,60.9,30.02,East,90,0.0,-999.0,96,0.00,,,0.00,Wunderground v.1.15,2013-04-18 05:11:00,
2013-04-18 01:16:00,62.1,60.9,30.02,East,90,0.0,-999.0,96,0.00,,,0.00,Wunderground v.1.15,2013-04-18 05:16:00,
2013-04-18 01:21:00,62.1,60.9,30.02,East,90,0.0,-999.0,96,0.00,,,0.00,Wunderground v.1.15,2013-04-18 05:21:00,
2013-04-18 01:26:00,61.8,60.4,30.01,East,90,0.0,-999.0,95,0.00,,,0.00,Wunderground v.1.15,2013-04-18 05:26:00,
2013-04-18 01:31:00,61.8,60.4,30.01,East,90,0.0,-999.0,95,0.00,,,0.00,Wunderground v.1.15,2013-04-18 05:31:00,
2013-04-18 01:36:00,61.8,60.4,30.01,East,90,0.0,-999.0,95,0.00,,,0.00,Wunderground v.1.15,2013-04-18 05:36:00,
2013-04-18 01:41:00,61.4,60.2,30.01,East,90,0.0,-999.0,96,0.00,,,0.00,Wunderground v.1.15,2013-04-18 05:41:00,
2013-04-18 01:46:00,61.4,60.2,30.01,East,90,0.0,-999.0,96,0.00,,,0.00,Wunderground v.1.15,2013-04-18 05:46:00,
2013-04-18 01:51:00,61.4,60.2,30.01,East,90,0.0,-999.0,96,0.00,,,0.00,Wunderground v.1.15,2013-04-18 05:51:00,
2013-04-18 01:56:00,60.9,60.0,30.01,NE,45,0.0,-999.0,97,0.00,,,0.00,Wunderground v.1.15,2013-04-18 05:56:00,
2013-04-18 02:01:00,60.9,60.0,30.01,NE,45,0.0,-999.0,97,0.00,,,0.00,Wunderground v.1.15,2013-04-18 06:01:00,
2013-04-18 02:06:00,60.9,60.0,30.01,NE,45,0.0,-999.0,97,0.00,,,0.00,Wunderground v.1.15,2013-04-18 06:06:00,
2013-04-18 02:11:00,60.7,59.8,30.01,N/A,-737280,0.0,-999.0,97,0.00,,,0.00,Wunderground v.1.15,2013-04-18 06:11:00,
2013-04-18 02:16:00,60.7,59.8,30.01,N/A,-737280,0.0,-999.0,97,0.00,,,0.00,Wunderground v.1.15,2013-04-18 06:16:00,
2013-04-18 02:21:00,60.7,59.8,30.01,N/A,-737280,0.0,-999.0,97,0.00,,,0.00,Wunderground v.1.15,2013-04-18 06:21:00,
2013-04-18 02:26:00,60.4,59.8,30.00,NE,45,0.0,-999.0,98,0.00,,,0.00,Wunderground v.1.15,2013-04-18 06:26:00,
2013-04-18 02:31:00,60.4,59.8,30.00,NE,45,0.0,-999.0,98,0.00,,,0.00,Wunderground v.1.15,2013-04-18 06:31:00,
2013-04-18 02:36:00,60.4,59.8,30.00,NE,45,0.0,-999.0,98,0.00,,,0.00,Wunderground v.1.15,2013-04-18 06:36:00,
2013-04-18 02:41:00,60.3,59.7,30.00,WSW,248,0.0,-999.0,98,0.00,,,0.00,Wunderground v.1.15,2013-04-18 06:41:00,
2013-04-18 02:46:00,60.3,59.7,30.00,WSW,248,0.0,-999.0,98,0.00,,,0.00,Wunderground v.1.15,2013-04-18 06:46:00,
2013-04-18 02:51:00,60.3,59.7,30.00,WSW,248,0.0,-999.0,98,0.00,,,0.00,Wunderground v.1.15,2013-04-18 06:51:00,
2013-04-18 02:56:00,59.6,59.0,30.00,WSW,248,0.0,-999.0,98,0.00,,,0.00,Wunderground v.1.15,2013-04-18 06:56:00,
2013-04-18 03:01:00,59.6,59.0,30.00,WSW,248,0.0,-999.0,98,0.00,,,0.00,Wunderground v.1.15,2013-04-18 07:01:00,
2013-04-18 03:06:00,59.6,59.0,30.00,WSW,248,0.0,-999.0,98,0.00,,,0.00,Wunderground v.1.15,2013-04-18 07:06:00,
2013-04-18 03:11:00,59.4,58.8,30.01,N/A,-737280,0.0,-999.0,98,0.00,,,0.00,Wunderground v.1.15,2013-04-18 07:11:00,
2013-04-18 03:16:00,59.4,58.8,30.01,N/A,-737280,0.0,-999.0,98,0.00,,,0.00,Wunderground v.1.15,2013-04-18 07:16:00,
2013-04-18 03:21:00,59.4,58.8,30.01,N/A,-737280,0.0,-999.0,98,0.00,,,0.00,Wunderground v.1.15,2013-04-18 07:21:00,
2013-04-18 03:26:00,59.6,59.0,30.00,WSW,248,0.0,-999.0,98,0.00,,,0.00,Wunderground v.1.15,2013-04-18 07:26:00,
2013-04-18 03:31:00,59.6,59.0,30.00,WSW,248,0.0,-999.0,98,0.00,,,0.00,Wunderground v.1.15,2013-04-18 07:31:00,
2013-04-18 03:36:00,59.6,59.0,30.00,WSW,248,0.0,-999.0,98,0.00,,,0.00,Wunderground v.1.15,2013-04-18 07:36:00,
2013-04-18 03:41:00,59.3,58.7,30.00,N/A,-737280,0.0,-999.0,98,0.00,,,0.00,Wunderground v.1.15,2013-04-18 07:41:00,
2013-04-18 03:46:00,59.3,58.7,30.00,N/A,-737280,0.0,-999.0,98,0.00,,,0.00,Wunderground v.1.15,2013-04-18 07:46:00,
2013-04-18 03:51:00,59.3,58.7,30.00,N/A,-737280,0.0,-999.0,98,0.00,,,0.00,Wunderground v.1.15,2013-04-18 07:51:00,
2013-04-18 03:56:00,59.1,58.5,30.00,NNE,23,1.0,-999.0,98,0.00,,,0.00,Wunderground v.1.15,2013-04-18 07:56:00,
2013-04-18 04:01:00,59.1,58.5,30.00,NNE,23,1.0,-999.0,98,0.00,,,0.00,Wunderground v.1.15,2013-04-18 08:01:00,
2013-04-18 04:06:00,59.1,58.5,30.00,NNE,23,1.0,-999.0,98,0.00,,,0.00,Wunderground v.1.15,2013-04-18 08:06:00,
2013-04-18 04:11:00,59.1,58.5,30.00,NNE,23,0.0,-999.0,98,0.00,,,0.00,Wunderground v.1.15,2013-04-18 08:11:00,
2013-04-18 04:16:00,59.1,58.5,30.00,NNE,23,0.0,-999.0,98,0.00,,,0.00,Wunderground v.1.15,2013-04-18 08:16:00,
2013-04-18 04:21:00,59.1,58.5,30.00,NNE,23,0.0,-999.0,98,0.00,,,0.00,Wunderground v.1.15,2013-04-18 08:21:00,
2013-04-18 04:26:00,58.4,57.8,30.00,NNW,338,0.0,-999.0,98,0.00,,,0.00,Wunderground v.1.15,2013-04-18 08:26:00,
2013-04-18 04:31:00,58.4,57.8,30.00,NNW,338,0.0,-999.0,98,0.00,,,0.00,Wunderground v.1.15,2013-04-18 08:31:00,
2013-04-18 04:36:00,58.4,57.8,30.00,NNW,338,0.0,-999.0,98,0.00,,,0.00,Wunderground v.1.15,2013-04-18 08:36:00,
2013-04-18 04:41:00,58.1,57.5,30.00,N/A,-737280,0.0,-999.0,98,0.00,,,0.00,Wunderground v.1.15,2013-04-18 08:41:00,
2013-04-18 04:46:00,58.1,57.5,30.00,N/A,-737280,0.0,-999.0,98,0.00,,,0.00,Wunderground v.1.15,2013-04-18 08:46:00,
2013-04-18 04:51:00,58.1,57.5,30.00,N/A,-737280,0.0,-999.0,98,0.00,,,0.00,Wunderground v.1.15,2013-04-18 08:51:00,
2013-04-18 04:56:00,57.8,57.5,30.00,NNW,338,0.0,-999.0,99,0.00,,,0.00,Wunderground v.1.15,2013-04-18 08:56:00,
2013-04-18 05:01:00,57.8,57.5,30.00,NNW,338,0.0,-999.0,99,0.00,,,0.00,Wunderground v.1.15,2013-04-18 09:01:00,
2013-04-18 05:06:00,57.8,57.5,30.00,NNW,338,0.0,-999.0,99,0.00,,,0.00,Wunderground v.1.15,2013-04-18 09:06:00,
2013-04-18 05:11:00,58.0,57.7,30.01,West,270,0.0,-999.0,99,0.00,,,0.00,Wunderground v.1.15,2013-04-18 09:11:00,
2013-04-18 05:16:00,58.0,57.7,30.01,West,270,0.0,-999.0,99,0.00,,,0.00,Wunderground v.1.15,2013-04-18 09:16:00,
2013-04-18 05:21:00,58.0,57.7,30.01,West,270,0.0,-999.0,99,0.00,,,0.00,Wunderground v.1.15,2013-04-18 09:21:00,
2013-04-18 05:26:00,58.2,57.9,30.00,West,270,0.0,-999.0,99,0.00,,,0.00,Wunderground v.1.15,2013-04-18 09:26:00,
2013-04-18 05:31:00,58.2,57.9,30.00,West,270,0.0,-999.0,99,0.00,,,0.00,Wunderground v.1.15,2013-04-18 09:31:00,
2013-04-18 05:36:00,58.2,57.9,30.00,West,270,0.0,-999.0,99,0.00,,,0.00,Wunderground v.1.15,2013-04-18 09:36:00,
2013-04-18 05:41:00,58.3,58.0,30.01,West,270,0.0,-999.0,99,0.00,,,0.00,Wunderground v.1.15,2013-04-18 09:41:00,
2013-04-18 05:46:00,58.3,58.0,30.01,West,270,0.0,-999.0,99,0.00,,,0.00,Wunderground v.1.15,2013-04-18 09:46:00,
2013-04-18 05:51:00,58.3,58.0,30.01,West,270,0.0,-999.0,99,0.00,,,0.00,Wunderground v.1.15,2013-04-18 09:51:00,
2013-04-18 05:53:00,58.5,58.2,30.01,N/A,-737280,0.0,-999.0,99,0.00,,,0.00,Wunderground v.1.15,2013-04-18 09:53:00,
2013-04-18 05:56:00,58.5,58.2,30.01,N/A,-737280,0.0,-999.0,99,0.00,,,0.00,Wunderground v.1.15,2013-04-18 09:56:00,
2013-04-18 05:58:00,58.5,58.2,30.01,N/A,-737280,0.0,-999.0,99,0.00,,,0.00,Wunderground v.1.15,2013-04-18 09:58:00,
2013-04-18 06:01:00,58.5,58.2,30.01,N/A,-737280,0.0,-999.0,99,0.00,,,0.00,Wunderground v.1.15,2013-04-18 10:01:00,
2013-04-18 06:03:00,58.5,58.2,30.01,N/A,-737280,0.0,-999.0,99,0.00,,,0.00,Wunderground v.1.15,2013-04-18 10:03:00,
2013-04-18 06:06:00,58.5,58.2,30.01,N/A,-737280,0.0,-999.0,99,0.00,,,0.00,Wunderground v.1.15,2013-04-18 10:06:00,
2013-04-18 06:08:00,58.6,58.3,30.00,N/A,-737280,0.0,-999.0,99,0.00,,,0.00,Wunderground v.1.15,2013-04-18 10:08:00,
2013-04-18 06:11:00,58.6,58.3,30.00,N/A,-737280,0.0,-999.0,99,0.00,,,0.00,Wunderground v.1.15,2013-04-18 10:11:00,
2013-04-18 06:13:00,58.6,58.3,30.00,N/A,-737280,0.0,-999.0,99,0.00,,,0.00,Wunderground v.1.15,2013-04-18 10:13:00,
2013-04-18 06:16:00,58.6,58.3,30.00,N/A,-737280,0.0,-999.0,99,0.00,,,0.00,Wunderground v.1.15,2013-04-18 10:16:00,
2013-04-18 06:18:00,58.6,58.3,30.00,N/A,-737280,0.0,-999.0,99,0.00,,,0.00,Wunderground v.1.15,2013-04-18 10:18:00,
2013-04-18 06:21:00,58.6,58.3,30.00,N/A,-737280,0.0,-999.0,99,0.00,,,0.00,Wunderground v.1.15,2013-04-18 10:21:00,
2013-04-18 06:23:00,58.6,58.3,30.00,N/A,-737280,0.0,-999.0,99,0.00,,,0.00,Wunderground v.1.15,2013-04-18 10:23:00,
2013-04-18 06:26:00,58.6,58.3,30.00,N/A,-737280,0.0,-999.0,99,0.00,,,0.00,Wunderground v.1.15,2013-04-18 10:26:00,
2013-04-18 06:28:00,58.6,58.3,30.00,N/A,-737280,0.0,-999.0,99,0.00,,,0.00,Wunderground v.1.15,2013-04-18 10:28:00,
2013-04-18 06:31:00,58.6,58.3,30.00,N/A,-737280,0.0,-999.0,99,0.00,,,0.00,Wunderground v.1.15,2013-04-18 10:31:00,
2013-04-18 06:33:00,58.6,58.3,30.00,N/A,-737280,0.0,-999.0,99,0.00,,,0.00,Wunderground v.1.15,2013-04-18 10:33:00,
2013-04-18 06:36:00,58.6,58.3,30.00,N/A,-737280,0.0,-999.0,99,0.00,,,0.00,Wunderground v.1.15,2013-04-18 10:36:00,
2013-04-18 06:38:00,58.2,57.9,30.01,N/A,-737280,0.0,-999.0,99,0.00,,,0.00,Wunderground v.1.15,2013-04-18 10:38:00,
2013-04-18 06:41:00,58.2,57.9,30.01,N/A,-737280,0.0,-999.0,99,0.00,,,0.00,Wunderground v.1.15,2013-04-18 10:41:00,
2013-04-18 06:43:00,58.2,57.9,30.01,N/A,-737280,0.0,-999.0,99,0.00,,,0.00,Wunderground v.1.15,2013-04-18 10:43:00,
2013-04-18 06:46:00,58.2,57.9,30.01,N/A,-737280,0.0,-999.0,99,0.00,,,0.00,Wunderground v.1.15,2013-04-18 10:46:00,
2013-04-18 06:48:00,58.2,57.9,30.01,N/A,-737280,0.0,-999.0,99,0.00,,,0.00,Wunderground v.1.15,2013-04-18 10:48:00,
2013-04-18 06:51:00,58.2,57.9,30.01,N/A,-737280,0.0,-999.0,99,0.00,,,0.00,Wunderground v.1.15,2013-04-18 10:51:00,
2013-04-18 06:53:00,57.9,57.6,30.01,N/A,-737280,0.0,-999.0,99,0.00,,,0.00,Wunderground v.1.15,2013-04-18 10:53:00,
2013-04-18 06:56:00,57.9,57.6,30.01,N/A,-737280,0.0,-999.0,99,0.00,,,0.00,Wunderground v.1.15,2013-04-18 10:56:00,
2013-04-18 06:58:00,57.9,57.6,30.01,N/A,-737280,0.0,-999.0,99,0.00,,,0.00,Wunderground v.1.15,2013-04-18 10:58:00,
2013-04-18 07:01:00,57.9,57.6,30.01,N/A,-737280,0.0,-999.0,99,0.00,,,0.00,Wunderground v.1.15,2013-04-18 11:01:00,
2013-04-18 07:03:00,57.9,57.6,30.01,N/A,-737280,0.0,-999.0,99,0.00,,,0.00,Wunderground v.1.15,2013-04-18 11:03:00,
2013-04-18 07:06:00,57.9,57.6,30.01,N/A,-737280,0.0,-999.0,99,0.00,,,0.00,Wunderground v.1.15,2013-04-18 11:06:00,
2013-04-18 07:08:00,58.0,58.0,30.01,N/A,-737280,0.0,-999.0,100,0.00,,,0.00,Wunderground v.1.15,2013-04-18 11:08:00,
2013-04-18 07:11:00,58.0,58.0,30.01,N/A,-737280,0.0,-999.0,100,0.00,,,0.00,Wunderground v.1.15,2013-04-18 11:11:00,
2013-04-18 07:13:00,58.0,58.0,30.01,N/A,-737280,0.0,-999.0,100,0.00,,,0.00,Wunderground v.1.15,2013-04-18 11:13:00,
2013-04-18 07:16:00,58.0,58.0,30.01,N/A,-737280,0.0,-999.0,100,0.00,,,0.00,Wunderground v.1.15,2013-04-18 11:16:00,
2013-04-18 07:18:00,58.0,58.0,30.01,N/A,-737280,0.0,-999.0,100,0.00,,,0.00,Wunderground v.1.15,2013-04-18 11:18:00,
2013-04-18 07:21:00,58.0,58.0,30.01,N/A,-737280,0.0,-999.0,100,0.00,,,0.00,Wunderground v.1.15,2013-04-18 11:21:00,
2013-04-18 07:23:00,57.8,57.8,30.01,West,270,0.0,-999.0,100,0.00,,,0.00,Wunderground v.1.15,2013-04-18 11:23:00,
2013-04-18 07:26:00,57.8,57.8,30.01,West,270,0.0,-999.0,100,0.00,,,0.00,Wunderground v.1.15,2013-04-18 11:26:00,
2013-04-18 07:28:00,57.8,57.8,30.01,West,270,0.0,-999.0,100,0.00,,,0.00,Wunderground v.1.15,2013-04-18 11:28:00,
2013-04-18 07:33:00,57.8,57.8,30.01,West,270,0.0,-999.0,100,0.00,,,0.00,Wunderground v.1.15,2013-04-18 11:33:00,
2013-04-18 07:38:00,58.2,58.2,30.02,West,270,0.0,-999.0,100,0.00,,,0.00,Wunderground v.1.15,2013-04-18 11:38:00,
2013-04-18 07:50:00,58.2,58.2,30.01,West,259,0.0,8.0,100,0.00,,,0.00,Wunderground v.1.15,2013-04-18 11:50:00,
2013-04-18 07:55:00,58.4,58.4,30.01,West,259,0.0,8.0,100,0.00,,,0.00,Wunderground v.1.15,2013-04-18 11:55:00,
2013-04-18 08:00:00,58.7,58.7,30.01,West,259,0.0,0.0,100,0.00,,,0.00,Wunderground v.1.15,2013-04-18 12:00:00,
2013-04-18 08:05:00,58.8,58.8,30.01,WSW,258,1.0,1.0,100,0.00,,,0.00,Wunderground v.1.15,2013-04-18 12:05:00,
2013-04-18 08:10:00,59.1,59.1,30.01,West,259,0.0,1.0,100,0.00,,,0.00,Wunderground v.1.15,2013-04-18 12:10:00,
2013-04-18 08:15:00,59.4,59.4,30.02,WSW,258,0.0,1.0,100,0.00,,,0.00,Wunderground v.1.15,2013-04-18 12:15:00,
2013-04-18 08:20:00,59.8,59.8,30.02,West,259,0.0,0.0,100,0.00,,,0.00,Wunderground v.1.15,2013-04-18 12:20:00,
2013-04-18 08:25:00,60.1,60.1,30.02,WSW,257,0.0,0.0,100,0.00,,,0.00,Wunderground v.1.15,2013-04-18 12:25:00,
2013-04-18 08:30:00,60.5,60.5,30.02,WSW,258,0.0,0.0,100,0.00,,,0.00,Wunderground v.1.15,2013-04-18 12:30:00,
2013-04-18 08:35:00,60.9,60.9,30.02,West,259,0.0,0.0,100,0.00,,,0.00,Wunderground v.1.15,2013-04-18 12:35:00,
2013-04-18 08:40:00,61.3,61.3,30.02,West,259,0.0,0.0,100,0.00,,,0.00,Wunderground v.1.15,2013-04-18 12:40:00,
2013-04-18 08:45:00,61.4,61.4,30.02,West,259,0.0,1.0,100,0.00,,,0.00,Wunderground v.1.15,2013-04-18 12:45:00,
2013-04-18 08:50:00,61.5,61.5,30.02,WSW,258,0.0,0.0,100,0.00,,,0.00,Wunderground v.1.15,2013-04-18 12:50:00,
2013-04-18 08:55:00,61.8,61.8,30.01,West,259,0.0,0.0,100,0.00,,,0.00,Wunderground v.1.15,2013-04-18 12:55:00,
2013-04-18 09:00:00,62.1,62.1,30.01,West,259,0.0,0.0,100,0.00,,,0.00,Wunderground v.1.15,2013-04-18 13:00:00,
2013-04-18 09:05:00,62.4,62.4,30.01,WSW,258,0.0,0.0,100,0.00,,,0.00,Wunderground v.1.15,2013-04-18 13:05:00,
2013-04-18 09:10:00,63.1,63.1,30.02,West,259,0.0,0.0,100,0.00,,,0.00,Wunderground v.1.15,2013-04-18 13:10:00,
2013-04-18 09:15:00,63.5,63.5,30.01,WSW,258,0.0,1.0,100,0.00,,,0.00,Wunderground v.1.15,2013-04-18 13:15:00,
2013-04-18 09:20:00,63.7,63.7,30.02,West,259,1.0,1.0,100,0.00,,,0.00,Wunderground v.1.15,2013-04-18 13:20:00,
2013-04-18 09:25:00,64.4,64.4,30.02,WSW,258,0.0,1.0,100,0.00,,,0.00,Wunderground v.1.15,2013-04-18 13:25:00,
2013-04-18 09:30:00,65.0,65.0,30.02,SW,226,1.0,1.0,100,0.00,,,0.00,Wunderground v.1.15,2013-04-18 13:30:00,
2013-04-18 09:35:00,65.0,65.0,30.02,WSW,248,0.0,-999.0,100,0.00,,,0.00,Wunderground v.1.15,2013-04-18 13:35:00,
2013-04-18 09:36:00,65.2,65.2,30.02,WSW,245,0.0,2.0,100,0.00,,,0.00,Wunderground v.1.15,2013-04-18 13:36:00,
2013-04-18 09:40:00,65.9,65.6,30.02,WSW,248,1.0,-999.0,99,0.00,,,0.00,Wunderground v.1.15,2013-04-18 13:40:00,
2013-04-18 09:41:00,65.4,65.1,30.02,WSW,242,1.0,3.0,99,0.00,,,0.00,Wunderground v.1.15,2013-04-18 13:41:00,
2013-04-18 09:45:00,65.9,65.6,30.02,WSW,248,1.0,-999.0,99,0.00,,,0.00,Wunderground v.1.15,2013-04-18 13:45:00,
2013-04-18 09:46:00,65.9,65.6,30.02,WSW,255,6.0,8.0,99,0.00,,,0.00,Wunderground v.1.15,2013-04-18 13:46:00,
2013-04-18 09:50:00,65.9,65.6,30.02,WSW,248,1.0,-999.0,99,0.00,,,0.00,Wunderground v.1.15,2013-04-18 13:50:00,
2013-04-18 09:51:00,65.8,65.2,30.02,WSW,243,5.0,12.0,98,0.00,,,0.00,Wunderground v.1.15,2013-04-18 13:51:00,
2013-04-18 09:55:00,66.6,66.0,30.02,WSW,248,8.0,-999.0,98,0.00,,,0.00,Wunderground v.1.15,2013-04-18 13:55:00,
2013-04-18 09:56:00,66.0,65.4,30.02,WSW,238,13.0,13.0,98,0.00,,,0.00,Wunderground v.1.15,2013-04-18 13:56:00,
2013-04-18 10:00:00,66.6,66.0,30.02,WSW,248,8.0,-999.0,98,0.00,,,0.00,Wunderground v.1.15,2013-04-18 14:00:00,
2013-04-18 10:01:00,66.8,65.9,30.02,WSW,255,6.0,11.0,97,0.00,,,0.00,Wunderground v.1.15,2013-04-18 14:01:00,
2013-04-18 10:05:00,66.6,66.0,30.02,WSW,248,8.0,-999.0,98,0.00,,,0.00,Wunderground v.1.15,2013-04-18 14:05:00,
2013-04-18 10:06:00,68.1,65.4,30.02,WSW,251,11.0,13.0,91,0.00,,,0.00,Wunderground v.1.15,2013-04-18 14:06:00,
2013-04-18 10:10:00,69.7,65.0,30.02,WSW,248,8.0,-999.0,85,0.00,,,0.00,Wunderground v.1.15,2013-04-18 14:10:00,
2013-04-18 10:11:00,69.2,66.1,30.02,WSW,256,7.0,9.0,90,0.00,,,0.00,Wunderground v.1.15,2013-04-18 14:11:00,
2013-04-18 10:15:00,69.7,65.0,30.02,WSW,248,8.0,-999.0,85,0.00,,,0.00,Wunderground v.1.15,2013-04-18 14:15:00,
2013-04-18 10:16:00,69.8,65.1,30.02,WSW,243,9.0,14.0,85,0.00,,,0.00,Wunderground v.1.15,2013-04-18 14:16:00,
2013-04-18 10:20:00,69.7,65.0,30.02,WSW,248,8.0,-999.0,85,0.00,,,0.00,Wunderground v.1.15,2013-04-18 14:20:00,
2013-04-18 10:21:00,70.3,65.2,30.02,West,269,8.0,12.0,84,0.00,,,0.00,Wunderground v.1.15,2013-04-18 14:21:00,
2013-04-18 10:25:00,70.7,65.3,30.02,West,270,10.0,-999.0,83,0.00,,,0.00,Wunderground v.1.15,2013-04-18 14:25:00,
2013-04-18 10:26:00,70.5,64.4,30.02,West,263,15.0,19.0,81,0.00,,,0.00,Wunderground v.1.15,2013-04-18 14:26:00,
2013-04-18 10:30:00,70.7,65.3,30.02,West,270,10.0,-999.0,83,0.00,,,0.00,Wunderground v.1.15,2013-04-18 14:30:00,
2013-04-18 10:31:00,70.7,65.3,30.02,West,260,10.0,18.0,83,0.00,,,0.00,Wunderground v.1.15,2013-04-18 14:31:00,
2013-04-18 10:35:00,70.7,65.3,30.02,West,270,10.0,-999.0,83,0.00,,,0.00,Wunderground v.1.15,2013-04-18 14:35:00,
2013-04-18 10:36:00,70.8,64.7,30.02,WSW,255,11.0,18.0,81,0.00,,,0.00,Wunderground v.1.15,2013-04-18 14:36:00,
2013-04-18 10:40:00,71.2,65.4,30.01,West,270,10.0,-999.0,82,0.00,,,0.00,Wunderground v.1.15,2013-04-18 14:40:00,
2013-04-18 10:41:00,71.1,65.3,30.01,WSW,243,9.0,12.0,82,0.00,,,0.00,Wunderground v.1.15,2013-04-18 14:41:00,
2013-04-18 10:45:00,71.2,65.4,30.01,West,270,10.0,-999.0,82,0.00,,,0.00,Wunderground v.1.15,2013-04-18 14:45:00,
2013-04-18 10:46:00,71.2,65.4,30.01,West,277,11.0,18.0,82,0.00,,,0.00,Wunderground v.1.15,2013-04-18 14:46:00,
2013-04-18 10:50:00,71.2,65.4,30.01,West,270,10.0,-999.0,82,0.00,,,0.00,Wunderground v.1.15,2013-04-18 14:50:00,
2013-04-18 10:51:00,71.5,65.4,30.01,West,270,7.0,12.0,81,0.00,,,0.00,Wunderground v.1.15,2013-04-18 14:51:00,
2013-04-18 10:55:00,71.8,65.7,30.01,West,270,9.0,-999.0,81,0.00,,,0.00,Wunderground v.1.15,2013-04-18 14:55:00,
2013-04-18 10:56:00,71.5,65.4,30.01,WSW,239,7.0,15.0,81,0.00,,,0.00,Wunderground v.1.15,2013-04-18 14:56:00,
2013-04-18 11:00:00,71.8,65.7,30.01,West,270,9.0,-999.0,81,0.00,,,0.00,Wunderground v.1.15,2013-04-18 15:00:00,
2013-04-18 11:01:00,71.8,66.0,30.01,WSW,243,10.0,13.0,82,0.00,,,0.00,Wunderground v.1.15,2013-04-18 15:01:00,
2013-04-18 11:05:00,71.8,65.7,30.01,West,270,9.0,-999.0,81,0.00,,,0.00,Wunderground v.1.15,2013-04-18 15:05:00,
2013-04-18 11:06:00,72.2,65.0,30.01,WSW,239,9.0,14.0,78,0.00,,,0.00,Wunderground v.1.15,2013-04-18 15:06:00,
2013-04-18 11:10:00,72.6,64.6,30.01,WSW,248,10.0,-999.0,76,0.00,,,0.00,Wunderground v.1.15,2013-04-18 15:10:00,
2013-04-18 11:11:00,72.4,64.8,30.01,West,262,12.0,15.0,77,0.00,,,0.00,Wunderground v.1.15,2013-04-18 15:11:00,
2013-04-18 11:15:00,72.6,64.6,30.01,WSW,248,10.0,-999.0,76,0.00,,,0.00,Wunderground v.1.15,2013-04-18 15:15:00,
2013-04-18 11:16:00,72.7,64.7,30.01,West,262,11.0,18.0,76,0.00,,,0.00,Wunderground v.1.15,2013-04-18 15:16:00,
2013-04-18 11:20:00,72.6,64.6,30.01,WSW,248,10.0,-999.0,76,0.00,,,0.00,Wunderground v.1.15,2013-04-18 15:20:00,
2013-04-18 11:21:00,73.1,64.3,30.01,WSW,257,8.0,18.0,74,0.00,,,0.00,Wunderground v.1.15,2013-04-18 15:21:00,
2013-04-18 11:25:00,73.5,64.7,30.01,WSW,248,11.0,-999.0,74,0.00,,,0.00,Wunderground v.1.15,2013-04-18 15:25:00,
2013-04-18 11:26:00,73.3,63.3,30.01,SW,231,13.0,18.0,71,0.00,,,0.00,Wunderground v.1.15,2013-04-18 15:26:00,
2013-04-18 11:30:00,73.5,64.7,30.01,WSW,248,11.0,-999.0,74,0.00,,,0.00,Wunderground v.1.15,2013-04-18 15:30:00,
2013-04-18 11:31:00,73.6,64.4,30.01,WSW,246,12.0,16.0,73,0.00,,,0.00,Wunderground v.1.15,2013-04-18 15:31:00,
2013-04-18 11:35:00,73.5,64.7,30.01,WSW,248,11.0,-999.0,74,0.00,,,0.00,Wunderground v.1.15,2013-04-18 15:35:00,
2013-04-18 11:36:00,73.9,63.5,30.01,WSW,243,11.0,17.0,70,0.00,,,0.00,Wunderground v.1.15,2013-04-18 15:36:00,
2013-04-18 11:40:00,74.2,63.0,30.00,WSW,248,11.0,-999.0,68,0.00,,,0.00,Wunderground v.1.15,2013-04-18 15:40:00,
2013-04-18 11:41:00,74.0,64.8,30.00,WSW,249,10.0,19.0,73,0.00,,,0.00,Wunderground v.1.15,2013-04-18 15:41:00,
2013-04-18 11:45:00,74.2,63.0,30.00,WSW,248,11.0,-999.0,68,0.00,,,0.00,Wunderground v.1.15,2013-04-18 15:45:00,
2013-04-18 11:46:00,74.2,63.4,30.00,South,191,7.0,19.0,69,0.00,,,0.00,Wunderground v.1.15,2013-04-18 15:46:00,
2013-04-18 11:50:00,74.2,63.0,30.00,WSW,248,11.0,-999.0,68,0.00,,,0.00,Wunderground v.1.15,2013-04-18 15:50:00,
2013-04-18 11:51:00,74.5,63.7,30.00,WSW,258,14.0,15.0,69,0.00,,,0.00,Wunderground v.1.15,2013-04-18 15:51:00,
2013-04-18 11:55:00,74.8,64.8,29.99,WSW,248,9.0,-999.0,71,0.00,,,0.00,Wunderground v.1.15,2013-04-18 15:55:00,
2013-04-18 11:56:00,74.4,64.8,30.00,WSW,238,8.0,16.0,72,0.00,,,0.00,Wunderground v.1.15,2013-04-18 15:56:00,
2013-04-18 12:00:00,74.8,64.8,29.99,WSW,248,9.0,-999.0,71,0.00,,,0.00,Wunderground v.1.15,2013-04-18 16:00:00,
2013-04-18 12:01:00,74.9,64.9,29.99,West,267,12.0,13.0,71,0.00,,,0.00,Wunderground v.1.15,2013-04-18 16:01:00,
2013-04-18 12:05:00,74.8,64.8,29.99,WSW,248,9.0,-999.0,71,0.00,,,0.00,Wunderground v.1.15,2013-04-18 16:05:00,
2013-04-18 12:06:00,74.8,63.5,29.99,WSW,253,18.0,18.0,68,0.00,,,0.00,Wunderground v.1.15,2013-04-18 16:06:00,
2013-04-18 12:10:00,74.9,63.6,29.99,WSW,248,11.0,-999.0,68,0.00,,,0.00,Wunderground v.1.15,2013-04-18 16:10:00,
2013-04-18 12:11:00,74.6,62.9,29.99,WSW,245,8.0,19.0,67,0.00,,,0.00,Wunderground v.1.15,2013-04-18 16:11:00,
2013-04-18 12:15:00,74.9,63.6,29.99,WSW,248,11.0,-999.0,68,0.00,,,0.00,Wunderground v.1.15,2013-04-18 16:15:00,
2013-04-18 12:20:00,74.9,63.6,29.99,WSW,248,11.0,-999.0,68,0.00,,,0.00,Wunderground v.1.15,2013-04-18 16:20:00,
2013-04-18 12:25:00,75.3,63.2,29.98,WSW,248,13.0,-999.0,66,0.00,,,0.00,Wunderground v.1.15,2013-04-18 16:25:00,
2013-04-18 12:30:00,75.3,63.2,29.98,WSW,248,13.0,-999.0,66,0.00,,,0.00,Wunderground v.1.15,2013-04-18 16:30:00,
2013-04-18 12:35:00,75.3,63.2,29.98,WSW,248,13.0,-999.0,66,0.00,,,0.00,Wunderground v.1.15,2013-04-18 16:35:00,
2013-04-18 12:40:00,75.4,61.5,29.98,WSW,248,13.0,-999.0,62,0.00,,,0.00,Wunderground v.1.15,2013-04-18 16:40:00,
2013-04-18 12:45:00,75.4,61.5,29.98,WSW,248,13.0,-999.0,62,0.00,,,0.00,Wunderground v.1.15,2013-04-18 16:45:00,
2013-04-18 12:50:00,75.4,61.5,29.98,WSW,248,13.0,-999.0,62,0.00,,,0.00,Wunderground v.1.15,2013-04-18 16:50:00,
2013-04-18 12:55:00,76.1,61.2,29.97,WSW,248,13.0,-999.0,60,0.00,,,0.00,Wunderground v.1.15,2013-04-18 16:55:00,
2013-04-18 13:00:00,76.1,61.2,29.97,WSW,248,13.0,-999.0,60,0.00,,,0.00,Wunderground v.1.15,2013-04-18 17:00:00,
2013-04-18 13:05:00,76.1,61.2,29.97,WSW,248,13.0,-999.0,60,0.00,,,0.00,Wunderground v.1.15,2013-04-18 17:05:00,
2013-04-18 13:10:00,76.7,61.8,29.97,WSW,248,11.0,-999.0,60,0.00,,,0.00,Wunderground v.1.15,2013-04-18 17:10:00,
2013-04-18 13:15:00,76.7,61.8,29.97,WSW,248,11.0,-999.0,60,0.00,,,0.00,Wunderground v.1.15,2013-04-18 17:15:00,
2013-04-18 13:20:00,76.7,61.8,29.97,WSW,248,11.0,-999.0,60,0.00,,,0.00,Wunderground v.1.15,2013-04-18 17:20:00,
2013-04-18 13:25:00,76.8,59.4,29.95,WSW,248,14.0,-999.0,55,0.00,,,0.00,Wunderground v.1.15,2013-04-18 17:25:00,
2013-04-18 13:30:00,76.8,59.4,29.95,WSW,248,14.0,-999.0,55,0.00,,,0.00,Wunderground v.1.15,2013-04-18 17:30:00,
2013-04-18 13:35:00,76.8,59.4,29.95,WSW,248,14.0,-999.0,55,0.00,,,0.00,Wunderground v.1.15,2013-04-18 17:35:00,
2013-04-18 13:40:00,77.3,60.9,29.95,WSW,248,12.0,-999.0,57,0.00,,,0.00,Wunderground v.1.15,2013-04-18 17:40:00,
2013-04-18 13:45:00,77.3,60.9,29.95,WSW,248,12.0,-999.0,57,0.00,,,0.00,Wunderground v.1.15,2013-04-18 17:45:00,
2013-04-18 13:50:00,77.3,60.9,29.95,WSW,248,12.0,-999.0,57,0.00,,,0.00,Wunderground v.1.15,2013-04-18 17:50:00,
2013-04-18 13:55:00,77.5,59.5,29.94,WSW,248,13.0,-999.0,54,0.00,,,0.00,Wunderground v.1.15,2013-04-18 17:55:00,
2013-04-18 14:00:00,77.5,59.5,29.94,WSW,248,13.0,-999.0,54,0.00,,,0.00,Wunderground v.1.15,2013-04-18 18:00:00,
2013-04-18 14:05:00,77.5,59.5,29.94,WSW,248,13.0,-999.0,54,0.00,,,0.00,Wunderground v.1.15,2013-04-18 18:05:00,
2013-04-18 14:10:00,77.7,59.2,29.94,WSW,248,14.0,-999.0,53,0.00,,,0.00,Wunderground v.1.15,2013-04-18 18:10:00,
2013-04-18 14:15:00,77.7,59.2,29.94,WSW,248,14.0,-999.0,53,0.00,,,0.00,Wunderground v.1.15,2013-04-18 18:15:00,
2013-04-18 14:20:00,77.7,59.2,29.94,WSW,248,14.0,-999.0,53,0.00,,,0.00,Wunderground v.1.15,2013-04-18 18:20:00,
2013-04-18 14:25:00,78.1,59.6,29.93,WSW,248,16.0,-999.0,53,0.00,,,0.00,Wunderground v.1.15,2013-04-18 18:25:00,
2013-04-18 14:30:00,78.1,59.6,29.93,WSW,248,16.0,-999.0,53,0.00,,,0.00,Wunderground v.1.15,2013-04-18 18:30:00,
2013-04-18 14:35:00,78.1,59.6,29.93,WSW,248,16.0,-999.0,53,0.00,,,0.00,Wunderground v.1.15,2013-04-18 18:35:00,
2013-04-18 14:40:00,78.5,58.3,29.92,WSW,248,16.0,-999.0,50,0.00,,,0.00,Wunderground v.1.15,2013-04-18 18:40:00,
2013-04-18 14:45:00,78.5,58.3,29.92,WSW,248,16.0,-999.0,50,0.00,,,0.00,Wunderground v.1.15,2013-04-18 18:45:00,
2013-04-18 14:50:00,78.5,58.3,29.92,WSW,248,16.0,-999.0,50,0.00,,,0.00,Wunderground v.1.15,2013-04-18 18:50:00,
2013-04-18 14:55:00,78.8,60.7,29.92,WSW,248,15.0,-999.0,54,0.00,,,0.00,Wunderground v.1.15,2013-04-18 18:55:00,
2013-04-18 15:00:00,78.8,60.7,29.92,WSW,248,15.0,-999.0,54,0.00,,,0.00,Wunderground v.1.15,2013-04-18 19:00:00,
2013-04-18 15:05:00,78.8,60.7,29.92,WSW,248,15.0,-999.0,54,0.00,,,0.00,Wunderground v.1.15,2013-04-18 19:05:00,
2013-04-18 15:10:00,79.2,60.1,29.91,WSW,248,14.0,-999.0,52,0.00,,,0.00,Wunderground v.1.15,2013-04-18 19:10:00,
2013-04-18 15:15:00,79.2,60.1,29.91,WSW,248,14.0,-999.0,52,0.00,,,0.00,Wunderground v.1.15,2013-04-18 19:15:00,
2013-04-18 15:20:00,79.2,60.1,29.91,WSW,248,14.0,-999.0,52,0.00,,,0.00,Wunderground v.1.15,2013-04-18 19:20:00,
2013-04-18 15:25:00,79.2,59.0,29.90,WSW,248,11.0,-999.0,50,0.00,,,0.00,Wunderground v.1.15,2013-04-18 19:25:00,
2013-04-18 15:30:00,79.2,59.0,29.90,WSW,248,11.0,-999.0,50,0.00,,,0.00,Wunderground v.1.15,2013-04-18 19:30:00,
2013-04-18 15:35:00,79.2,59.0,29.90,WSW,248,11.0,-999.0,50,0.00,,,0.00,Wunderground v.1.15,2013-04-18 19:35:00,
2013-04-18 15:40:00,78.9,58.7,29.90,WSW,248,13.0,-999.0,50,0.00,,,0.00,Wunderground v.1.15,2013-04-18 19:40:00,
2013-04-18 15:45:00,78.9,58.7,29.90,WSW,248,13.0,-999.0,50,0.00,,,0.00,Wunderground v.1.15,2013-04-18 19:45:00,
2013-04-18 15:50:00,78.9,58.7,29.90,WSW,248,13.0,-999.0,50,0.00,,,0.00,Wunderground v.1.15,2013-04-18 19:50:00,
2013-04-18 15:55:00,78.8,59.1,29.90,WSW,248,13.0,-999.0,51,0.00,,,0.00,Wunderground v.1.15,2013-04-18 19:55:00,
2013-04-18 16:00:00,78.8,59.1,29.90,WSW,248,13.0,-999.0,51,0.00,,,0.00,Wunderground v.1.15,2013-04-18 20:00:00,
2013-04-18 16:05:00,78.8,59.1,29.90,WSW,248,13.0,-999.0,51,0.00,,,0.00,Wunderground v.1.15,2013-04-18 20:05:00,
2013-04-18 16:10:00,79.5,59.8,29.89,WSW,248,12.0,-999.0,51,0.00,,,0.00,Wunderground v.1.15,2013-04-18 20:10:00,
2013-04-18 16:15:00,79.5,59.8,29.89,WSW,248,12.0,-999.0,51,0.00,,,0.00,Wunderground v.1.15,2013-04-18 20:15:00,
2013-04-18 16:20:00,79.5,59.8,29.89,WSW,248,12.0,-999.0,51,0.00,,,0.00,Wunderground v.1.15,2013-04-18 20:20:00,
2013-04-18 16:25:00,79.5,57.5,29.89,West,270,16.0,-999.0,47,0.00,,,0.00,Wunderground v.1.15,2013-04-18 20:25:00,
2013-04-18 16:30:00,79.5,57.5,29.89,West,270,16.0,-999.0,47,0.00,,,0.00,Wunderground v.1.15,2013-04-18 20:30:00,
2013-04-18 16:35:00,79.5,57.5,29.89,West,270,16.0,-999.0,47,0.00,,,0.00,Wunderground v.1.15,2013-04-18 20:35:00,
2013-04-18 16:40:00,79.9,58.5,29.88,WSW,248,15.0,-999.0,48,0.00,,,0.00,Wunderground v.1.15,2013-04-18 20:40:00,
2013-04-18 16:45:00,79.9,58.5,29.88,WSW,248,15.0,-999.0,48,0.00,,,0.00,Wunderground v.1.15,2013-04-18 20:45:00,
2013-04-18 16:50:00,79.9,58.5,29.88,WSW,248,15.0,-999.0,48,0.00,,,0.00,Wunderground v.1.15,2013-04-18 20:50:00,
2013-04-18 16:55:00,79.3,59.6,29.87,WSW,248,14.0,-999.0,51,0.00,,,0.00,Wunderground v.1.15,2013-04-18 20:55:00,
2013-04-18 17:00:00,79.3,59.6,29.87,WSW,248,14.0,-999.0,51,0.00,,,0.00,Wunderground v.1.15,2013-04-18 21:00:00,
2013-04-18 17:05:00,79.3,59.6,29.87,WSW,248,14.0,-999.0,51,0.00,,,0.00,Wunderground v.1.15,2013-04-18 21:05:00,
2013-04-18 17:10:00,80.3,58.8,29.86,WSW,248,12.0,-999.0,48,0.00,,,0.00,Wunderground v.1.15,2013-04-18 21:10:00,
2013-04-18 17:15:00,80.3,58.8,29.86,WSW,248,12.0,-999.0,48,0.00,,,0.00,Wunderground v.1.15,2013-04-18 21:15:00,
2013-04-18 17:20:00,80.3,58.8,29.86,WSW,248,12.0,-999.0,48,0.00,,,0.00,Wunderground v.1.15,2013-04-18 21:20:00,
2013-04-18 17:25:00,79.1,58.9,29.86,WSW,248,14.0,-999.0,50,0.00,,,0.00,Wunderground v.1.15,2013-04-18 21:25:00,
2013-04-18 17:30:00,79.1,58.9,29.86,WSW,248,14.0,-999.0,50,0.00,,,0.00,Wunderground v.1.15,2013-04-18 21:30:00,
2013-04-18 17:35:00,79.1,58.9,29.86,WSW,248,14.0,-999.0,50,0.00,,,0.00,Wunderground v.1.15,2013-04-18 21:35:00,
2013-04-18 17:40:00,79.1,58.3,29.86,WSW,248,12.0,-999.0,49,0.00,,,0.00,Wunderground v.1.15,2013-04-18 21:40:00,
2013-04-18 17:45:00,79.1,58.3,29.86,WSW,248,12.0,-999.0,49,0.00,,,0.00,Wunderground v.1.15,2013-04-18 21:45:00,
2013-04-18 17:50:00,79.1,58.3,29.86,WSW,248,12.0,-999.0,49,0.00,,,0.00,Wunderground v.1.15,2013-04-18 21:50:00,
2013-04-18 17:55:00,79.4,59.1,29.86,WSW,248,13.0,-999.0,50,0.00,,,0.00,Wunderground v.1.15,2013-04-18 21:55:00,
2013-04-18 18:00:00,79.4,59.1,29.86,WSW,248,13.0,-999.0,50,0.00,,,0.00,Wunderground v.1.15,2013-04-18 22:00:00,
2013-04-18 18:05:00,79.4,59.1,29.86,WSW,248,13.0,-999.0,50,0.00,,,0.00,Wunderground v.1.15,2013-04-18 22:05:00,
2013-04-18 18:10:00,79.5,59.2,29.85,WSW,248,10.0,-999.0,50,0.00,,,0.00,Wunderground v.1.15,2013-04-18 22:10:00,
2013-04-18 18:15:00,79.5,59.2,29.85,WSW,248,10.0,-999.0,50,0.00,,,0.00,Wunderground v.1.15,2013-04-18 22:15:00,
2013-04-18 18:20:00,79.5,59.2,29.85,WSW,248,10.0,-999.0,50,0.00,,,0.00,Wunderground v.1.15,2013-04-18 22:20:00,
2013-04-18 18:25:00,78.5,58.3,29.85,WSW,248,10.0,-999.0,50,0.00,,,0.00,Wunderground v.1.15,2013-04-18 22:25:00,
2013-04-18 18:30:00,78.5,58.3,29.85,WSW,248,10.0,-999.0,50,0.00,,,0.00,Wunderground v.1.15,2013-04-18 22:30:00,
2013-04-18 18:35:00,78.5,58.3,29.85,WSW,248,10.0,-999.0,50,0.00,,,0.00,Wunderground v.1.15,2013-04-18 22:35:00,
2013-04-18 18:40:00,78.3,58.7,29.84,WSW,248,11.0,-999.0,51,0.00,,,0.00,Wunderground v.1.15,2013-04-18 22:40:00,
2013-04-18 18:45:00,78.3,58.7,29.84,WSW,248,11.0,-999.0,51,0.00,,,0.00,Wunderground v.1.15,2013-04-18 22:45:00,
2013-04-18 18:50:00,78.3,58.7,29.84,WSW,248,11.0,-999.0,51,0.00,,,0.00,Wunderground v.1.15,2013-04-18 22:50:00,
2013-04-18 18:55:00,78.0,58.9,29.84,WSW,248,10.0,-999.0,52,0.00,,,0.00,Wunderground v.1.15,2013-04-18 22:55:00,
2013-04-18 19:00:00,78.0,58.9,29.84,WSW,248,10.0,-999.0,52,0.00,,,0.00,Wunderground v.1.15,2013-04-18 23:00:00,
2013-04-18 19:05:00,78.0,58.9,29.84,WSW,248,10.0,-999.0,52,0.00,,,0.00,Wunderground v.1.15,2013-04-18 23:05:00,
2013-04-18 19:10:00,77.4,59.5,29.84,WSW,248,9.0,-999.0,54,0.00,,,0.00,Wunderground v.1.15,2013-04-18 23:10:00,
2013-04-18 19:15:00,77.4,59.5,29.84,WSW,248,9.0,-999.0,54,0.00,,,0.00,Wunderground v.1.15,2013-04-18 23:15:00,
2013-04-18 19:20:00,77.4,59.5,29.84,WSW,248,9.0,-999.0,54,0.00,,,0.00,Wunderground v.1.15,2013-04-18 23:20:00,
2013-04-18 19:25:00,76.7,59.8,29.83,WSW,248,7.0,-999.0,56,0.00,,,0.00,Wunderground v.1.15,2013-04-18 23:25:00,
2013-04-18 19:30:00,76.7,59.8,29.83,WSW,248,7.0,-999.0,56,0.00,,,0.00,Wunderground v.1.15,2013-04-18 23:30:00,
2013-04-18 19:35:00,76.7,59.8,29.83,WSW,248,7.0,-999.0,56,0.00,,,0.00,Wunderground v.1.15,2013-04-18 23:35:00,
2013-04-18 19:40:00,76.0,60.2,29.83,WSW,248,6.0,-999.0,58,0.00,,,0.00,Wunderground v.1.15,2013-04-18 23:40:00,
2013-04-18 19:45:00,76.0,60.2,29.83,WSW,248,6.0,-999.0,58,0.00,,,0.00,Wunderground v.1.15,2013-04-18 23:45:00,
2013-04-18 19:50:00,76.0,60.2,29.83,WSW,248,6.0,-999.0,58,0.00,,,0.00,Wunderground v.1.15,2013-04-18 23:50:00,
2013-04-18 19:55:00,75.3,60.0,29.82,WSW,248,5.0,-999.0,59,0.00,,,0.00,Wunderground v.1.15,2013-04-18 23:55:00,
2013-04-18 20:00:00,75.3,60.0,29.82,WSW,248,5.0,-999.0,59,0.00,,,0.00,Wunderground v.1.15,2013-04-19 00:00:00,
2013-04-18 20:05:00,75.3,60.0,29.82,WSW,248,5.0,-999.0,59,0.00,,,0.00,Wunderground v.1.15,2013-04-19 00:05:00,
2013-04-18 20:10:00,74.6,60.3,29.83,WSW,248,4.0,-999.0,61,0.00,,,0.00,Wunderground v.1.15,2013-04-19 00:10:00,
2013-04-18 20:15:00,74.6,60.3,29.83,WSW,248,4.0,-999.0,61,0.00,,,0.00,Wunderground v.1.15,2013-04-19 00:15:00,
2013-04-18 20:20:00,74.6,60.3,29.83,WSW,248,4.0,-999.0,61,0.00,,,0.00,Wunderground v.1.15,2013-04-19 00:20:00,
2013-04-18 20:25:00,74.0,60.2,29.84,WSW,248,4.0,-999.0,62,0.00,,,0.00,Wunderground v.1.15,2013-04-19 00:25:00,
2013-04-18 20:30:00,74.0,60.2,29.84,WSW,248,4.0,-999.0,62,0.00,,,0.00,Wunderground v.1.15,2013-04-19 00:30:00,
2013-04-18 20:35:00,74.0,60.2,29.84,WSW,248,4.0,-999.0,62,0.00,,,0.00,Wunderground v.1.15,2013-04-19 00:35:00,
2013-04-18 20:40:00,73.4,60.5,29.83,WSW,248,3.0,-999.0,64,0.00,,,0.00,Wunderground v.1.15,2013-04-19 00:40:00,
2013-04-18 20:45:00,73.4,60.5,29.83,WSW,248,3.0,-999.0,64,0.00,,,0.00,Wunderground v.1.15,2013-04-19 00:45:00,
2013-04-18 20:50:00,73.4,60.5,29.83,WSW,248,3.0,-999.0,64,0.00,,,0.00,Wunderground v.1.15,2013-04-19 00:50:00,
2013-04-18 20:55:00,73.0,60.5,29.83,SW,225,3.0,-999.0,65,0.00,,,0.00,Wunderground v.1.15,2013-04-19 00:55:00,
2013-04-18 21:00:00,73.0,60.5,29.83,SW,225,3.0,-999.0,65,0.00,,,0.00,Wunderground v.1.15,2013-04-19 01:00:00,
2013-04-18 21:05:00,73.0,60.5,29.83,SW,225,3.0,-999.0,65,0.00,,,0.00,Wunderground v.1.15,2013-04-19 01:05:00,
2013-04-18 21:10:00,72.7,60.7,29.83,WSW,248,3.0,-999.0,66,0.00,,,0.00,Wunderground v.1.15,2013-04-19 01:10:00,
2013-04-18 21:15:00,72.7,60.7,29.83,WSW,248,3.0,-999.0,66,0.00,,,0.00,Wunderground v.1.15,2013-04-19 01:15:00,
2013-04-18 21:20:00,72.7,60.7,29.83,WSW,248,3.0,-999.0,66,0.00,,,0.00,Wunderground v.1.15,2013-04-19 01:20:00,
2013-04-18 21:25:00,72.7,60.7,29.84,WSW,248,3.0,-999.0,66,0.00,,,0.00,Wunderground v.1.15,2013-04-19 01:25:00,
2013-04-18 21:30:00,72.7,60.7,29.84,WSW,248,3.0,-999.0,66,0.00,,,0.00,Wunderground v.1.15,2013-04-19 01:30:00,
2013-04-18 21:35:00,72.7,60.7,29.84,WSW,248,3.0,-999.0,66,0.00,,,0.00,Wunderground v.1.15,2013-04-19 01:35:00,
2013-04-18 21:40:00,72.7,60.7,29.84,WSW,248,3.0,-999.0,66,0.00,,,0.00,Wunderground v.1.15,2013-04-19 01:40:00,
2013-04-18 21:45:00,72.7,60.7,29.84,WSW,248,3.0,-999.0,66,0.00,,,0.00,Wunderground v.1.15,2013-04-19 01:45:00,
2013-04-18 21:50:00,72.7,60.7,29.84,WSW,248,3.0,-999.0,66,0.00,,,0.00,Wunderground v.1.15,2013-04-19 01:50:00,
2013-04-18 21:55:00,72.8,60.8,29.83,WSW,248,3.0,-999.0,66,0.00,,,0.00,Wunderground v.1.15,2013-04-19 01:55:00,
2013-04-18 22:00:00,72.8,60.8,29.83,WSW,248,3.0,-999.0,66,0.00,,,0.00,Wunderground v.1.15,2013-04-19 02:00:00,
2013-04-18 22:05:00,72.8,60.8,29.83,WSW,248,3.0,-999.0,66,0.00,,,0.00,Wunderground v.1.15,2013-04-19 02:05:00,
2013-04-18 22:10:00,73.0,60.5,29.82,SW,225,3.0,-999.0,65,0.00,,,0.00,Wunderground v.1.15,2013-04-19 02:10:00,
2013-04-18 22:15:00,73.0,60.5,29.82,SW,225,3.0,-999.0,65,0.00,,,0.00,Wunderground v.1.15,2013-04-19 02:15:00,
2013-04-18 22:20:00,73.0,60.5,29.82,SW,225,3.0,-999.0,65,0.00,,,0.00,Wunderground v.1.15,2013-04-19 02:20:00,
2013-04-18 22:25:00,73.1,60.6,29.81,WSW,248,5.0,-999.0,65,0.00,,,0.00,Wunderground v.1.15,2013-04-19 02:25:00,
2013-04-18 22:30:00,73.1,60.6,29.81,WSW,248,5.0,-999.0,65,0.00,,,0.00,Wunderground v.1.15,2013-04-19 02:30:00,
2013-04-18 22:35:00,73.1,60.6,29.81,WSW,248,5.0,-999.0,65,0.00,,,0.00,Wunderground v.1.15,2013-04-19 02:35:00,
2013-04-18 22:40:00,73.5,60.1,29.79,WSW,248,5.0,-999.0,63,0.00,,,0.00,Wunderground v.1.15,2013-04-19 02:40:00,
2013-04-18 22:45:00,73.5,60.1,29.79,WSW,248,5.0,-999.0,63,0.00,,,0.00,Wunderground v.1.15,2013-04-19 02:45:00,
2013-04-18 22:50:00,73.5,60.1,29.79,WSW,248,5.0,-999.0,63,0.00,,,0.00,Wunderground v.1.15,2013-04-19 02:50:00,
2013-04-18 22:55:00,73.9,60.5,29.79,WSW,248,6.0,-999.0,63,0.00,,,0.00,Wunderground v.1.15,2013-04-19 02:55:00,
2013-04-18 23:00:00,73.9,60.5,29.79,WSW,248,6.0,-999.0,63,0.00,,,0.00,Wunderground v.1.15,2013-04-19 03:00:00,
2013-04-18 23:05:00,73.9,60.5,29.79,WSW,248,6.0,-999.0,63,0.00,,,0.00,Wunderground v.1.15,2013-04-19 03:05:00,
2013-04-18 23:10:00,74.1,60.2,29.78,WSW,248,8.0,-999.0,62,0.00,,,0.00,Wunderground v.1.15,2013-04-19 03:10:00,
2013-04-18 23:15:00,74.1,60.2,29.78,WSW,248,8.0,-999.0,62,0.00,,,0.00,Wunderground v.1.15,2013-04-19 03:15:00,
2013-04-18 23:20:00,74.1,60.2,29.78,WSW,248,8.0,-999.0,62,0.00,,,0.00,Wunderground v.1.15,2013-04-19 03:20:00,
2013-04-18 23:25:00,74.4,60.1,29.77,WSW,248,9.0,-999.0,61,0.00,,,0.00,Wunderground v.1.15,2013-04-19 03:25:00,
2013-04-18 23:30:00,74.4,60.1,29.77,WSW,248,9.0,-999.0,61,0.00,,,0.00,Wunderground v.1.15,2013-04-19 03:30:00,
2013-04-18 23:35:00,74.4,60.1,29.77,WSW,248,9.0,-999.0,61,0.00,,,0.00,Wunderground v.1.15,2013-04-19 03:35:00,
2013-04-18 23:40:00,74.6,59.8,29.77,WSW,248,10.0,-999.0,60,0.00,,,0.00,Wunderground v.1.15,2013-04-19 03:40:00,
2013-04-18 23:45:00,74.6,59.8,29.77,WSW,248,10.0,-999.0,60,0.00,,,0.00,Wunderground v.1.15,2013-04-19 03:45:00,
2013-04-18 23:50:00,74.6,59.8,29.77,WSW,248,10.0,-999.0,60,0.00,,,0.00,Wunderground v.1.15,2013-04-19 03:50:00,
2013-04-18 23:55:00,74.7,59.9,29.77,WSW,248,12.0,-999.0,60,0.00,,,0.00,Wunderground v.1.15,2013-04-19 03:55:00,